KB1JDX Weather Reports


Display with metric or nautical units.
time (UTC)temp
F
wind
direction
speed
MPH
gust
MPH
rain 1hr
in
rain 24hr
in
rain mn
in
humidity
%
barometer
mb
20260905041206 63 47 0.0 0.0 0.00 0.00 0.00 100 1009.5
20260905035206 64 47 0.0 0.0 0.00 0.00 0.00 100 1009.5
20260905033103 64 47 0.0 0.0 0.00 0.00 0.00 100 1009.4
20260905031206 64 47 0.0 0.0 0.00 0.00 0.00 100 1009.2
20260905025206 65 47 0.0 0.0 0.00 0.00 0.00 100 1009.2
20260905023103 65 47 0.0 0.0 0.00 0.00 0.00 100 1009.2
20260905021206 66 47 0.0 0.0 0.00 0.00 0.00 100 1009.1
20260905015206 66 47 0.0 0.0 0.00 0.00 0.00 100 1009.4
20260905013206 66 47 0.0 0.0 0.00 0.00 0.00 100 1009.5
20260905013103 67 47 0.0 0.0 0.00 0.00 0.00 100 1009.5
20260905011206 67 47 0.0 0.0 0.00 0.00 0.00 100 1009.5
20260905005206 68 47 0.0 0.0 0.00 0.00 0.00 100 1009.5
20260905003206 68 47 0.0 0.0 0.00 0.00 0.00 100 1009.4
20260905003103 68 47 0.0 0.0 0.00 0.00 0.00 100 1009.4
20260905001206 69 46 0.0 0.0 0.00 0.00 0.00 100 1009.2
20260904235206 71 47 0.0 0.0 0.00 0.00 0.00 4 1009.1
20260904233206 73 47 0.0 0.0 0.00 0.00 0.00 38 1008.9
20260904233103 73 47 0.0 0.0 0.00 0.00 0.00 39 1008.9
20260904231206 74 47 0.0 0.0 0.00 0.00 0.00 46 1009.0
20260904225206 75 47 0.0 0.0 0.00 0.00 0.00 53 1008.8
20260904223209 77 47 0.0 0.0 0.00 0.00 0.00 54 1008.7
20260904223103 77 47 0.0 0.0 0.00 0.00 0.00 54 1008.7
20260904221206 78 47 0.0 0.0 0.00 0.00 0.00 54 1008.5
20260904215206 79 47 0.0 6.0 0.00 0.00 0.00 54 1008.4
20260904213206 81 47 0.0 6.0 0.00 0.00 0.00 54 1008.5
20260904213103 81 47 0.0 6.0 0.00 0.00 0.00 54 1008.5
20260904211206 82 47 0.0 6.0 0.00 0.00 0.00 51 1008.6
20260904205205 83 321 0.0 0.0 0.00 0.00 0.00 50 1008.4
20260904203207 83 321 0.0 0.0 0.00 0.00 0.00 48 1008.4
20260904203103 83 321 4.0 0.0 0.00 0.00 0.00 50 1008.4
20260904201206 85 39 0.0 9.0 0.00 0.00 0.00 49 1008.5
20260904195207 85 39 0.0 9.0 0.00 0.00 0.00 49 1008.5
20260904193207 85 302 0.0 9.0 0.00 0.00 0.00 47 1008.6
20260904193103 85 51 0.0 9.0 0.00 0.00 0.00 47 1008.5
20260904185206 82 294 0.0 8.0 0.00 0.00 0.00 50 1008.7
20260904183206 82 45 0.0 8.0 0.00 0.00 0.00 49 1008.9
20260904183103 82 45 0.0 8.0 0.00 0.00 0.00 49 1008.8
20260904181206 83 34 0.0 8.0 0.00 0.00 0.00 47 1008.8
20260904175206 83 303 0.0 7.0 0.00 0.00 0.00 48 1008.6
20260904173206 82 276 0.0 7.0 0.00 0.00 0.00 47 1008.9
20260904173103 82 277 0.0 7.0 0.00 0.00 0.00 47 1009.0
20260904171206 82 16 0.0 7.0 0.00 0.00 0.00 46 1009.0
20260904165206 82 52 0.0 9.0 0.00 0.00 0.00 45 1009.2
20260904163207 81 285 0.0 9.0 0.00 0.00 0.00 44 1009.3
20260904163103 81 285 0.0 9.0 0.00 0.00 0.00 44 1009.3
20260904161206 81 324 0.0 9.0 0.00 0.00 0.00 43 1009.4
20260904155207 81 348 0.0 7.0 0.00 0.00 0.00 41 1009.4
20260904153103 80 290 0.0 7.0 0.00 0.00 0.00 39 1009.5
20260904151207 80 9 0.0 7.0 0.00 0.00 0.00 37 1009.4
20260904145206 79 264 0.0 2.0 0.00 0.00 0.00 31 1009.6
20260904143205 79 300 0.0 2.0 0.00 0.00 0.00 20 1009.6
20260904143103 78 300 0.0 2.0 0.00 0.00 0.00 19 1009.6
20260904141208 77 36 0.0 2.0 0.00 0.00 0.00 100 1009.7
20260904135206 75 210 0.0 0.0 0.00 0.00 0.00 100 1009.8
20260904133208 73 209 0.0 0.0 0.00 0.00 0.00 100 1010.0
20260904133103 73 209 0.0 0.0 0.00 0.00 0.00 100 1010.0
20260904125205 70 209 0.0 0.0 0.00 0.00 0.00 100 1010.2
20260904123103 70 209 0.0 0.0 0.00 0.00 0.00 100 1010.2
20260904113206 68 209 0.0 0.0 0.00 0.00 0.00 100 1010.0
20260904113103 68 209 0.0 0.0 0.00 0.00 0.00 100 1009.9
20260904111205 68 209 0.0 0.0 0.00 0.00 0.00 100 1009.7
20260904105206 68 209 0.0 0.0 0.00 0.00 0.00 100 1009.8
20260904103103 68 209 0.0 0.0 0.00 0.00 0.00 100 1009.8
20260904101205 68 209 0.0 0.0 0.00 0.00 0.00 100 1009.5
20260904093205 69 209 0.0 0.0 0.00 0.00 0.00 100 1009.4
20260904093102 69 209 0.0 0.0 0.00 0.00 0.00 100 1009.5
20260904083205 69 209 0.0 0.0 0.00 0.00 0.00 100 1009.3
20260904083102 68 209 0.0 0.0 0.00 0.00 0.00 100 1009.3
20260904081205 69 209 0.0 0.0 0.00 0.00 0.00 100 1009.4
20260904075205 69 209 0.0 0.0 0.00 0.00 0.00 100 1009.4
20260904073205 69 209 0.0 0.0 0.00 0.00 0.00 100 1009.5
20260904073102 69 209 0.0 0.0 0.00 0.00 0.00 100 1009.5
20260904071205 69 209 0.0 0.0 0.00 0.00 0.00 100 1010.0
20260904065205 69 209 0.0 0.0 0.00 0.00 0.00 100 1010.1
20260904063205 69 209 0.0 0.0 0.00 0.00 0.00 100 1010.4
20260904063102 69 209 0.0 0.0 0.00 0.00 0.00 100 1010.4
20260904061205 69 209 0.0 0.0 0.00 0.00 0.00 100 1010.3
20260904053206 69 209 0.0 0.0 0.00 0.00 0.00 100 1010.8
20260904053102 69 209 0.0 0.0 0.00 0.00 0.00 100 1010.8
20260904051205 70 209 0.0 0.0 0.00 0.00 0.00 100 1010.8
20260904045205 70 209 0.0 0.0 0.00 0.00 0.00 100 1011.2
20260904043205 70 209 0.0 0.0 0.00 0.00 0.00 100 1011.1
20260904043102 70 209 0.0 0.0 0.00 0.00 0.00 100 1011.1